Simultaneous Nadir Overpasses (SNOs) Predictions

Prediction of SNOs between FY3D and NOAA-19 Satellite Orbit:

Table of predicted SNOs for the next 14.0 days since TLE Epoch: 12/3/2022
Index Date (FY3D) Time (FY3D) Lat,Lon (FY3D) SZA (FY3D ) Date (NOAA-19) Time (NOAA-19) Lat,Lon (NOAA-19) SZA (NOAA-19 ) Distance(km) Time Diff (sec)
1 12/16/2022 20:42:38 -76.80, 37.32 79.71 12/16/2022 20:41:27 -76.81, 35.80 79.63 38.69 71
2 12/16/2022 21:33:29 77.00,-156.16 100.52 12/16/2022 21:32:17 76.97,-156.19 100.51 2.45 72
3 12/16/2022 22:24:14 -76.99, 11.18 79.49 12/16/2022 22:23:22 -77.00, 11.14 79.48 1.27 52
4 12/16/2022 23:15:01 77.01, 178.41 100.53 12/16/2022 23:14:16 77.00, 178.42 100.53 0.96 45
5 12/17/2022 00:05:46 -77.00, -14.25 79.48 12/17/2022 00:05:21 -77.02, -14.25 79.45 2.28 25
6 12/17/2022 00:56:33 77.02, 152.98 100.55 12/17/2022 00:56:15 77.02, 153.03 100.55 1.36 18
7 12/17/2022 01:47:18 -77.01, -39.68 79.46 12/17/2022 01:47:21 -77.00, -39.82 79.46 3.71 3
8 12/17/2022 02:38:05 77.03, 127.55 100.57 12/17/2022 02:38:14 77.05, 127.65 100.58 2.96 9
9 12/17/2022 03:28:50 -77.02, -65.11 79.45 12/17/2022 03:29:20 -77.03, -65.21 79.44 2.64 30



Historial Predications of SNOs between FY3D and NOAA-19
